Time,TemperatureF,DewpointF,PressureIn,WindDirection,WindDirectionDegrees,WindSpeedMPH,WindSpeedGustMPH,Humidity,HourlyPrecipIn,Conditions,Clouds,dailyrainin,SoftwareType,DateUTC
2013-12-22 00:01:00,72.7,65.9,30.05,SSW,203,0.9,2.0,79,0.00,,,0.00,WUHU216HW,2013-12-22 05:01:00,
2013-12-22 00:04:00,72.7,65.9,30.06,East,90,1.1,1.8,79,0.00,,,0.00,WUHU216HW,2013-12-22 05:04:00,
2013-12-22 00:07:00,72.7,65.9,30.05,SE,135,0.4,3.1,79,0.00,,,0.00,WUHU216HW,2013-12-22 05:07:00,
2013-12-22 00:12:00,72.7,65.9,30.05,ESE,113,0.4,3.1,79,0.00,,,0.00,WUHU216HW,2013-12-22 05:12:00,
2013-12-22 00:17:00,72.5,65.7,30.05,ESE,113,0.4,2.5,79,0.00,,,0.00,WUHU216HW,2013-12-22 05:17:00,
2013-12-22 00:22:00,72.5,65.7,30.05,ESE,113,1.6,2.5,79,0.00,,,0.00,WUHU216HW,2013-12-22 05:22:00,
2013-12-22 00:27:00,72.5,65.7,30.05,SE,135,1.8,2.5,79,0.00,,,0.00,WUHU216HW,2013-12-22 05:27:00,
2013-12-22 00:33:00,72.5,65.7,30.05,SE,135,0.4,1.8,79,0.00,,,0.00,WUHU216HW,2013-12-22 05:33:00,
2013-12-22 00:38:00,72.5,65.7,30.05,SE,135,0.4,1.6,79,0.00,,,0.00,WUHU216HW,2013-12-22 05:38:00,
2013-12-22 00:43:00,72.5,65.7,30.05,ESE,113,2.0,2.0,79,0.00,,,0.00,WUHU216HW,2013-12-22 05:43:00,
2013-12-22 00:48:00,72.5,65.7,30.05,ESE,113,1.1,2.5,79,0.00,,,0.00,WUHU216HW,2013-12-22 05:48:00,
2013-12-22 00:53:00,72.5,65.7,30.05,ESE,113,0.4,2.9,79,0.00,,,0.00,WUHU216HW,2013-12-22 05:53:00,
2013-12-22 00:58:00,72.4,65.2,30.05,ESE,113,1.6,1.8,78,0.00,,,0.00,WUHU216HW,2013-12-22 05:58:00,
2013-12-22 01:03:00,72.4,65.2,30.05,ESE,113,0.2,2.5,78,0.00,,,0.00,WUHU216HW,2013-12-22 06:03:00,
2013-12-22 01:08:00,72.5,65.7,30.04,SE,135,0.9,2.5,79,0.00,,,0.00,WUHU216HW,2013-12-22 06:08:00,
2013-12-22 01:13:00,72.4,65.2,30.04,ESE,113,0.7,1.8,78,0.00,,,0.00,WUHU216HW,2013-12-22 06:13:00,
2013-12-22 01:18:00,72.4,65.2,30.04,ESE,113,1.8,1.8,78,0.00,,,0.00,WUHU216HW,2013-12-22 06:18:00,
2013-12-22 01:23:00,72.4,65.2,30.04,ESE,113,1.8,2.0,78,0.00,,,0.00,WUHU216HW,2013-12-22 06:23:00,
2013-12-22 01:28:00,72.4,65.2,30.05,ESE,113,1.6,2.5,78,0.00,,,0.00,WUHU216HW,2013-12-22 06:28:00,
2013-12-22 01:33:00,72.4,65.2,30.05,ESE,113,1.3,2.5,78,0.00,,,0.00,WUHU216HW,2013-12-22 06:33:00,
2013-12-22 01:38:00,72.2,65.0,30.05,ESE,113,2.5,2.5,78,0.00,,,0.00,WUHU216HW,2013-12-22 06:38:00,
2013-12-22 01:44:00,72.2,65.0,30.05,ESE,113,1.3,2.5,78,0.00,,,0.00,WUHU216HW,2013-12-22 06:44:00,
2013-12-22 01:49:00,72.2,65.0,30.04,SE,135,1.1,2.2,78,0.00,,,0.00,WUHU216HW,2013-12-22 06:49:00,
2013-12-22 01:54:00,72.0,64.8,30.05,ESE,113,0.9,1.8,78,0.00,,,0.00,WUHU216HW,2013-12-22 06:54:00,
2013-12-22 01:59:00,72.0,64.8,30.05,ESE,113,0.2,2.0,78,0.00,,,0.00,WUHU216HW,2013-12-22 06:59:00,
2013-12-22 02:04:00,72.0,64.8,30.04,ESE,113,0.7,2.0,78,0.00,,,0.00,WUHU216HW,2013-12-22 07:04:00,
2013-12-22 02:09:00,72.0,64.8,30.04,ESE,113,1.1,1.1,78,0.00,,,0.00,WUHU216HW,2013-12-22 07:09:00,
2013-12-22 02:14:00,72.0,64.8,30.04,SE,135,0.2,1.1,78,0.00,,,0.00,WUHU216HW,2013-12-22 07:14:00,
2013-12-22 02:19:00,72.0,64.8,30.04,ESE,113,1.8,1.8,78,0.00,,,0.00,WUHU216HW,2013-12-22 07:19:00,
2013-12-22 02:24:00,72.0,64.8,30.05,SE,135,0.7,1.8,78,0.00,,,0.00,WUHU216HW,2013-12-22 07:24:00,
2013-12-22 02:29:00,72.0,64.8,30.04,ESE,113,0.4,2.7,78,0.00,,,0.00,WUHU216HW,2013-12-22 07:29:00,
2013-12-22 02:35:00,72.0,64.8,30.05,ESE,113,0.4,3.4,78,0.00,,,0.00,WUHU216HW,2013-12-22 07:35:00,
2013-12-22 02:40:00,71.8,64.6,30.05,SE,135,0.0,3.4,78,0.00,,,0.00,WUHU216HW,2013-12-22 07:40:00,
2013-12-22 02:45:00,71.8,64.6,30.04,SE,135,0.9,1.1,78,0.00,,,0.00,WUHU216HW,2013-12-22 07:45:00,
2013-12-22 02:50:00,71.8,64.6,30.04,ESE,113,0.7,1.6,78,0.00,,,0.00,WUHU216HW,2013-12-22 07:50:00,
2013-12-22 02:55:00,71.8,64.6,30.04,SE,135,0.7,2.2,78,0.00,,,0.00,WUHU216HW,2013-12-22 07:55:00,
2013-12-22 03:00:00,71.6,64.5,30.04,SE,135,0.9,2.2,78,0.00,,,0.00,WUHU216HW,2013-12-22 08:00:00,
2013-12-22 03:05:00,71.6,64.5,30.03,SE,135,0.9,2.0,78,0.00,,,0.00,WUHU216HW,2013-12-22 08:05:00,
2013-12-22 03:10:00,71.6,64.0,30.03,SE,135,0.7,2.0,77,0.00,,,0.00,WUHU216HW,2013-12-22 08:10:00,
2013-12-22 03:15:00,71.6,64.0,30.03,SE,135,1.1,1.8,77,0.00,,,0.00,WUHU216HW,2013-12-22 08:15:00,
2013-12-22 03:20:00,71.6,64.0,30.04,ESE,113,0.9,2.2,77,0.00,,,0.00,WUHU216HW,2013-12-22 08:20:00,
2013-12-22 03:25:00,71.6,64.0,30.04,ESE,113,2.5,2.5,77,0.00,,,0.00,WUHU216HW,2013-12-22 08:25:00,
2013-12-22 03:30:00,71.6,64.0,30.04,ESE,113,1.8,2.5,77,0.00,,,0.00,WUHU216HW,2013-12-22 08:30:00,
2013-12-22 03:35:00,71.6,64.0,30.04,ESE,113,1.3,2.5,77,0.00,,,0.00,WUHU216HW,2013-12-22 08:35:00,
2013-12-22 03:40:00,71.6,64.0,30.04,ESE,113,1.8,3.4,77,0.00,,,0.00,WUHU216HW,2013-12-22 08:40:00,
2013-12-22 03:46:00,71.6,64.0,30.04,SE,135,0.4,3.4,77,0.00,,,0.00,WUHU216HW,2013-12-22 08:46:00,
2013-12-22 03:51:00,71.6,64.0,30.04,SE,135,0.7,1.8,77,0.00,,,0.00,WUHU216HW,2013-12-22 08:51:00,
2013-12-22 03:56:00,71.6,64.0,30.04,ESE,113,2.5,2.5,77,0.00,,,0.00,WUHU216HW,2013-12-22 08:56:00,
2013-12-22 04:01:00,71.6,64.0,30.04,East,90,1.3,2.5,77,0.00,,,0.00,WUHU216HW,2013-12-22 09:01:00,
2013-12-22 04:06:00,71.6,64.0,30.04,SE,135,0.2,1.8,77,0.00,,,0.00,WUHU216HW,2013-12-22 09:06:00,
2013-12-22 04:11:00,71.6,64.0,30.04,ESE,113,0.9,2.7,77,0.00,,,0.00,WUHU216HW,2013-12-22 09:11:00,
2013-12-22 04:16:00,71.6,64.0,30.04,SE,135,0.9,2.7,77,0.00,,,0.00,WUHU216HW,2013-12-22 09:16:00,
2013-12-22 04:21:00,71.6,64.0,30.04,SE,135,1.1,1.6,77,0.00,,,0.00,WUHU216HW,2013-12-22 09:21:00,
2013-12-22 04:26:00,71.6,64.0,30.04,ESE,113,1.1,3.4,77,0.00,,,0.00,WUHU216HW,2013-12-22 09:26:00,
2013-12-22 04:31:00,71.6,64.0,30.04,SE,135,2.2,3.4,77,0.00,,,0.00,WUHU216HW,2013-12-22 09:31:00,
2013-12-22 04:36:00,71.6,64.0,30.03,SE,135,0.7,3.1,77,0.00,,,0.00,WUHU216HW,2013-12-22 09:36:00,
2013-12-22 04:41:00,71.6,64.0,30.04,SE,135,1.8,1.8,77,0.00,,,0.00,WUHU216HW,2013-12-22 09:41:00,
2013-12-22 04:46:00,71.6,64.0,30.04,ESE,113,0.0,1.8,77,0.00,,,0.00,WUHU216HW,2013-12-22 09:46:00,
2013-12-22 04:51:00,71.6,64.0,30.04,ESE,113,0.9,2.2,77,0.00,,,0.00,WUHU216HW,2013-12-22 09:51:00,
2013-12-22 04:57:00,71.6,64.0,30.04,SE,135,0.4,2.5,77,0.00,,,0.00,WUHU216HW,2013-12-22 09:57:00,
2013-12-22 05:02:00,71.6,64.0,30.04,ESE,113,1.1,2.5,77,0.00,,,0.00,WUHU216HW,2013-12-22 10:02:00,
2013-12-22 05:07:00,71.6,64.0,30.04,ESE,113,0.7,1.8,77,0.00,,,0.00,WUHU216HW,2013-12-22 10:07:00,
2013-12-22 05:12:00,71.5,63.8,30.04,SE,135,0.4,1.3,77,0.00,,,0.00,WUHU216HW,2013-12-22 10:12:00,
2013-12-22 05:17:00,71.5,63.8,30.04,ESE,113,0.9,1.1,77,0.00,,,0.00,WUHU216HW,2013-12-22 10:17:00,
2013-12-22 05:22:00,71.5,63.8,30.04,SE,135,1.1,1.3,77,0.00,,,0.00,WUHU216HW,2013-12-22 10:22:00,
2013-12-22 05:27:00,71.5,63.8,30.04,SE,135,0.4,1.8,77,0.00,,,0.00,WUHU216HW,2013-12-22 10:27:00,
2013-12-22 05:32:00,71.5,63.8,30.04,East,90,1.3,1.8,77,0.00,,,0.00,WUHU216HW,2013-12-22 10:32:00,
2013-12-22 05:37:00,71.3,63.6,30.05,East,90,1.6,2.2,77,0.00,,,0.00,WUHU216HW,2013-12-22 10:37:00,
2013-12-22 05:42:00,71.3,63.6,30.05,East,90,2.5,2.5,77,0.00,,,0.00,WUHU216HW,2013-12-22 10:42:00,
2013-12-22 05:47:00,71.3,63.6,30.05,ESE,113,1.8,2.5,77,0.00,,,0.00,WUHU216HW,2013-12-22 10:47:00,
2013-12-22 05:52:00,71.3,63.6,30.05,ESE,113,2.2,2.2,77,0.00,,,0.00,WUHU216HW,2013-12-22 10:52:00,
2013-12-22 05:57:00,71.3,63.6,30.05,ESE,113,1.8,2.2,77,0.00,,,0.00,WUHU216HW,2013-12-22 10:57:00,
2013-12-22 06:02:00,71.1,63.5,30.05,ESE,113,2.0,2.0,77,0.00,,,0.00,WUHU216HW,2013-12-22 11:02:00,
2013-12-22 06:07:00,71.1,63.5,30.05,SE,135,1.8,2.0,77,0.00,,,0.00,WUHU216HW,2013-12-22 11:07:00,
2013-12-22 06:13:00,71.1,63.5,30.05,ESE,113,1.1,1.8,77,0.00,,,0.00,WUHU216HW,2013-12-22 11:13:00,
2013-12-22 06:18:00,71.1,63.5,30.05,SE,135,2.5,2.5,77,0.00,,,0.00,WUHU216HW,2013-12-22 11:18:00,
2013-12-22 06:23:00,71.1,63.5,30.05,ESE,113,2.7,2.7,77,0.00,,,0.00,WUHU216HW,2013-12-22 11:23:00,
2013-12-22 06:28:00,71.1,63.5,30.05,SE,135,1.6,2.7,77,0.00,,,0.00,WUHU216HW,2013-12-22 11:28:00,
2013-12-22 06:33:00,71.1,63.5,30.05,ESE,113,1.8,3.1,77,0.00,,,0.00,WUHU216HW,2013-12-22 11:33:00,
2013-12-22 06:38:00,71.3,63.6,30.05,SE,135,1.1,3.1,77,0.00,,,0.00,WUHU216HW,2013-12-22 11:38:00,
2013-12-22 06:43:00,71.3,63.6,30.05,ESE,113,1.1,3.1,77,0.00,,,0.00,WUHU216HW,2013-12-22 11:43:00,
2013-12-22 06:48:00,71.3,63.6,30.06,SE,135,2.9,3.1,77,0.00,,,0.00,WUHU216HW,2013-12-22 11:48:00,
2013-12-22 06:53:00,71.3,63.3,30.06,ESE,113,1.1,2.9,76,0.00,,,0.00,WUHU216HW,2013-12-22 11:53:00,
2013-12-22 06:58:00,71.3,63.3,30.06,SE,135,1.1,3.4,76,0.00,,,0.00,WUHU216HW,2013-12-22 11:58:00,
2013-12-22 07:03:00,71.3,62.9,30.06,ESE,113,3.4,3.4,75,0.00,,,0.00,WUHU216HW,2013-12-22 12:03:00,
2013-12-22 07:08:00,71.3,63.3,30.06,East,90,2.0,4.0,76,0.00,,,0.00,WUHU216HW,2013-12-22 12:08:00,
2013-12-22 07:13:00,71.3,63.3,30.07,SE,135,1.3,4.0,76,0.00,,,0.00,WUHU216HW,2013-12-22 12:13:00,
2013-12-22 07:18:00,71.3,63.3,30.07,ESE,113,1.8,2.0,76,0.00,,,0.00,WUHU216HW,2013-12-22 12:18:00,
2013-12-22 07:23:00,71.3,63.3,30.07,SE,135,2.5,2.5,76,0.00,,,0.00,WUHU216HW,2013-12-22 12:23:00,
2013-12-22 07:29:00,71.5,63.5,30.07,SE,135,2.5,2.5,76,0.00,,,0.00,WUHU216HW,2013-12-22 12:29:00,
2013-12-22 07:34:00,71.3,63.3,30.07,ESE,113,1.1,2.7,76,0.00,,,0.00,WUHU216HW,2013-12-22 12:34:00,
2013-12-22 07:39:00,71.5,63.5,30.07,ESE,113,3.1,3.1,76,0.00,,,0.00,WUHU216HW,2013-12-22 12:39:00,
2013-12-22 07:44:00,71.5,63.5,30.07,ESE,113,2.9,4.0,76,0.00,,,0.00,WUHU216HW,2013-12-22 12:44:00,
2013-12-22 07:49:00,71.6,63.3,30.07,SE,135,0.2,4.0,75,0.00,,,0.00,WUHU216HW,2013-12-22 12:49:00,
2013-12-22 07:54:00,71.6,63.3,30.07,SE,135,1.8,4.7,75,0.00,,,0.00,WUHU216HW,2013-12-22 12:54:00,
2013-12-22 07:59:00,71.6,63.3,30.08,SSE,158,2.5,4.7,75,0.00,,,0.00,WUHU216HW,2013-12-22 12:59:00,
2013-12-22 08:04:00,71.6,63.3,30.07,SE,135,1.6,3.1,75,0.00,,,0.00,WUHU216HW,2013-12-22 13:04:00,
2013-12-22 08:09:00,71.8,63.5,30.08,SSE,158,0.9,4.0,75,0.00,,,0.00,WUHU216HW,2013-12-22 13:09:00,
2013-12-22 08:14:00,71.8,63.5,30.08,South,180,2.2,4.0,75,0.00,,,0.00,WUHU216HW,2013-12-22 13:14:00,
2013-12-22 08:19:00,72.2,63.5,30.08,SE,135,2.0,5.6,74,0.00,,,0.00,WUHU216HW,2013-12-22 13:19:00,
2013-12-22 08:24:00,72.4,64.0,30.08,SE,135,2.2,5.6,75,0.00,,,0.00,WUHU216HW,2013-12-22 13:24:00,
2013-12-22 08:29:00,72.4,64.0,30.08,SE,135,1.6,4.3,75,0.00,,,0.00,WUHU216HW,2013-12-22 13:29:00,
2013-12-22 08:34:00,72.7,64.0,30.08,ESE,113,2.5,7.8,74,0.00,,,0.00,WUHU216HW,2013-12-22 13:34:00,
2013-12-22 08:40:00,73.1,64.4,30.08,South,180,2.7,7.8,74,0.00,,,0.00,WUHU216HW,2013-12-22 13:40:00,
2013-12-22 08:45:00,73.3,64.9,30.09,SE,135,0.2,5.1,75,0.00,,,0.00,WUHU216HW,2013-12-22 13:45:00,
2013-12-22 08:50:00,73.4,65.1,30.09,ESE,113,2.7,3.8,75,0.00,,,0.00,WUHU216HW,2013-12-22 13:50:00,
2013-12-22 08:55:00,73.6,65.3,30.09,SE,135,2.0,3.4,75,0.00,,,0.00,WUHU216HW,2013-12-22 13:55:00,
2013-12-22 09:00:00,73.8,65.4,30.09,SE,135,1.8,2.7,75,0.00,,,0.00,WUHU216HW,2013-12-22 14:00:00,
2013-12-22 09:05:00,74.0,65.6,30.09,SSE,158,1.8,5.1,75,0.00,,,0.00,WUHU216HW,2013-12-22 14:05:00,
2013-12-22 09:10:00,74.2,65.8,30.10,East,90,1.1,5.1,75,0.00,,,0.00,WUHU216HW,2013-12-22 14:10:00,
2013-12-22 09:15:00,74.5,66.1,30.10,SE,135,2.7,3.8,75,0.00,,,0.00,WUHU216HW,2013-12-22 14:15:00,
2013-12-22 09:20:00,74.9,66.9,30.10,SSE,158,1.6,6.0,76,0.00,,,0.00,WUHU216HW,2013-12-22 14:20:00,
2013-12-22 09:25:00,75.2,67.6,30.10,SSE,158,2.0,6.0,77,0.00,,,0.00,WUHU216HW,2013-12-22 14:25:00,
2013-12-22 09:30:00,75.6,68.0,30.10,SE,135,2.2,6.3,77,0.00,,,0.00,WUHU216HW,2013-12-22 14:30:00,
2013-12-22 09:35:00,76.0,68.7,30.10,SE,135,2.0,6.3,78,0.00,,,0.00,WUHU216HW,2013-12-22 14:35:00,
2013-12-22 09:40:00,76.3,68.9,30.10,SE,135,2.2,4.5,78,0.00,,,0.00,WUHU216HW,2013-12-22 14:40:00,
2013-12-22 09:45:00,76.5,69.1,30.11,SE,135,3.8,8.3,78,0.00,,,0.00,WUHU216HW,2013-12-22 14:45:00,
2013-12-22 09:51:00,76.7,69.7,30.11,ESE,113,6.3,8.3,79,0.00,,,0.00,WUHU216HW,2013-12-22 14:51:00,
2013-12-22 09:56:00,76.9,69.5,30.11,SSE,158,4.3,6.3,78,0.00,,,0.00,WUHU216HW,2013-12-22 14:56:00,
2013-12-22 10:01:00,77.0,69.7,30.11,SSE,158,3.6,6.0,78,0.00,,,0.00,WUHU216HW,2013-12-22 15:01:00,
2013-12-22 10:06:00,77.4,70.0,30.11,SE,135,2.2,8.1,78,0.00,,,0.00,WUHU216HW,2013-12-22 15:06:00,
2013-12-22 10:11:00,77.8,70.3,30.11,SSE,158,2.5,8.1,78,0.00,,,0.00,WUHU216HW,2013-12-22 15:11:00,
2013-12-22 10:16:00,78.1,70.7,30.11,SSE,158,4.0,6.5,78,0.00,,,0.00,WUHU216HW,2013-12-22 15:16:00,
2013-12-22 10:21:00,78.3,70.8,30.11,East,90,6.9,6.9,78,0.00,,,0.00,WUHU216HW,2013-12-22 15:21:00,
2013-12-22 10:26:00,78.7,71.2,30.11,ESE,113,5.8,6.9,78,0.00,,,0.00,WUHU216HW,2013-12-22 15:26:00,
2013-12-22 10:31:00,78.8,71.0,30.11,SE,135,7.6,8.5,77,0.00,,,0.00,WUHU216HW,2013-12-22 15:31:00,
2013-12-22 10:36:00,78.8,71.0,30.10,SSW,203,5.8,7.6,77,0.00,,,0.00,WUHU216HW,2013-12-22 15:36:00,
2013-12-22 10:41:00,79.2,71.4,30.10,SSE,158,2.5,6.3,77,0.00,,,0.00,WUHU216HW,2013-12-22 15:41:00,
2013-12-22 10:46:00,79.2,71.4,30.10,SE,135,3.4,6.9,77,0.00,,,0.00,WUHU216HW,2013-12-22 15:46:00,
2013-12-22 10:51:00,79.6,71.3,30.10,SE,135,2.5,6.9,76,0.00,,,0.00,WUHU216HW,2013-12-22 15:51:00,
2013-12-22 10:56:00,79.6,71.3,30.10,SSE,158,3.4,4.7,76,0.00,,,0.00,WUHU216HW,2013-12-22 15:56:00,
2013-12-22 11:02:00,79.6,71.3,30.10,SE,135,2.9,6.9,76,0.00,,,0.00,WUHU216HW,2013-12-22 16:02:00,
2013-12-22 11:07:00,79.9,71.6,30.09,SE,135,2.5,7.6,76,0.00,,,0.00,WUHU216HW,2013-12-22 16:07:00,
2013-12-22 11:12:00,79.9,71.3,30.09,SE,135,6.3,7.6,75,0.00,,,0.00,WUHU216HW,2013-12-22 16:12:00,
2013-12-22 11:17:00,80.1,71.5,30.09,SE,135,4.7,10.3,75,0.00,,,0.00,WUHU216HW,2013-12-22 16:17:00,
2013-12-22 11:22:00,80.3,70.8,30.09,SE,135,7.2,10.3,73,0.00,,,0.00,WUHU216HW,2013-12-22 16:22:00,
2013-12-22 11:27:00,80.5,71.5,30.09,ESE,113,7.8,7.8,74,0.00,,,0.00,WUHU216HW,2013-12-22 16:27:00,
2013-12-22 11:32:00,80.8,71.4,30.09,SSE,158,5.4,7.8,73,0.00,,,0.00,WUHU216HW,2013-12-22 16:32:00,
2013-12-22 11:37:00,80.8,71.0,30.09,SE,135,4.7,7.6,72,0.00,,,0.00,WUHU216HW,2013-12-22 16:37:00,
2013-12-22 11:42:00,81.0,71.6,30.09,SSE,158,1.8,7.6,73,0.00,,,0.00,WUHU216HW,2013-12-22 16:42:00,
2013-12-22 11:47:00,81.0,71.6,30.09,SE,135,4.7,6.7,73,0.00,,,0.00,WUHU216HW,2013-12-22 16:47:00,
2013-12-22 11:52:00,81.0,71.1,30.09,ESE,113,4.9,8.1,72,0.00,,,0.00,WUHU216HW,2013-12-22 16:52:00,
2013-12-22 11:57:00,81.0,71.1,30.09,SSE,158,3.1,8.1,72,0.00,,,0.00,WUHU216HW,2013-12-22 16:57:00,
2013-12-22 12:03:00,81.0,71.1,30.09,SE,135,5.4,5.4,72,0.00,,,0.00,WUHU216HW,2013-12-22 17:03:00,
2013-12-22 12:08:00,81.2,71.3,30.09,SSE,158,3.4,7.8,72,0.00,,,0.00,WUHU216HW,2013-12-22 17:08:00,
2013-12-22 12:13:00,81.4,71.5,30.08,SE,135,3.6,7.8,72,0.00,,,0.00,WUHU216HW,2013-12-22 17:13:00,
2013-12-22 12:18:00,81.7,71.8,30.08,SSE,158,3.8,7.6,72,0.00,,,0.00,WUHU216HW,2013-12-22 17:18:00,
2013-12-22 12:23:00,81.9,71.6,30.08,ESE,113,2.7,7.6,71,0.00,,,0.00,WUHU216HW,2013-12-22 17:23:00,
2013-12-22 12:28:00,81.9,71.6,30.08,SSE,158,2.5,7.2,71,0.00,,,0.00,WUHU216HW,2013-12-22 17:28:00,
2013-12-22 12:33:00,82.1,72.5,30.08,SSW,203,4.7,5.8,73,0.00,,,0.00,WUHU216HW,2013-12-22 17:33:00,
2013-12-22 12:38:00,81.9,71.6,30.08,SSE,158,1.3,5.8,71,0.00,,,0.00,WUHU216HW,2013-12-22 17:38:00,
2013-12-22 12:43:00,81.5,71.3,30.07,SSE,158,2.5,5.8,71,0.00,,,0.00,WUHU216HW,2013-12-22 17:43:00,
2013-12-22 12:48:00,81.4,71.1,30.07,SE,135,1.1,6.5,71,0.00,,,0.00,WUHU216HW,2013-12-22 17:48:00,
2013-12-22 12:53:00,81.4,71.1,30.07,SSE,158,4.0,7.6,71,0.00,,,0.00,WUHU216HW,2013-12-22 17:53:00,
2013-12-22 12:58:00,81.9,71.6,30.07,SSE,158,5.4,7.6,71,0.00,,,0.00,WUHU216HW,2013-12-22 17:58:00,
2013-12-22 13:03:00,81.7,71.4,30.07,SSE,158,3.4,6.5,71,0.00,,,0.00,WUHU216HW,2013-12-22 18:03:00,
2013-12-22 13:09:00,81.9,70.8,30.07,SSE,158,2.5,6.5,69,0.00,,,0.00,WUHU216HW,2013-12-22 18:09:00,
2013-12-22 13:14:00,81.5,70.8,30.07,SSE,158,1.8,6.0,70,0.00,,,0.00,WUHU216HW,2013-12-22 18:14:00,
2013-12-22 13:19:00,81.5,70.8,30.07,SSE,158,4.9,6.0,70,0.00,,,0.00,WUHU216HW,2013-12-22 18:19:00,
2013-12-22 13:24:00,81.4,70.7,30.06,South,180,3.6,5.1,70,0.00,,,0.00,WUHU216HW,2013-12-22 18:24:00,
2013-12-22 13:29:00,81.4,70.2,30.06,SSE,158,5.4,5.4,69,0.00,,,0.00,WUHU216HW,2013-12-22 18:29:00,
2013-12-22 13:34:00,81.4,71.1,30.06,SSW,203,1.8,5.4,71,0.00,,,0.00,WUHU216HW,2013-12-22 18:34:00,
2013-12-22 13:39:00,81.5,70.4,30.06,SE,135,5.4,5.4,69,0.00,,,0.00,WUHU216HW,2013-12-22 18:39:00,
2013-12-22 13:44:00,81.5,70.8,30.06,SSE,158,1.1,6.7,70,0.00,,,0.00,WUHU216HW,2013-12-22 18:44:00,
2013-12-22 13:49:00,81.9,71.2,30.05,SE,135,4.5,6.7,70,0.00,,,0.00,WUHU216HW,2013-12-22 18:49:00,
2013-12-22 13:54:00,82.4,72.1,30.05,SSE,158,3.6,4.7,71,0.00,,,0.00,WUHU216HW,2013-12-22 18:54:00,
2013-12-22 13:59:00,82.6,71.8,30.05,ESE,113,1.3,4.7,70,0.00,,,0.00,WUHU216HW,2013-12-22 18:59:00,
2013-12-22 14:04:00,82.8,71.1,30.05,WSW,248,3.6,4.7,68,0.00,,,0.00,WUHU216HW,2013-12-22 19:04:00,
2013-12-22 14:09:00,82.8,71.1,30.05,SSE,158,3.8,3.8,68,0.00,,,0.00,WUHU216HW,2013-12-22 19:09:00,
2013-12-22 14:14:00,82.8,71.6,30.04,SE,135,3.4,4.0,69,0.00,,,0.00,WUHU216HW,2013-12-22 19:14:00,
2013-12-22 14:20:00,82.8,71.1,30.04,SE,135,5.4,5.4,68,0.00,,,0.00,WUHU216HW,2013-12-22 19:20:00,
2013-12-22 14:25:00,82.6,70.5,30.04,SE,135,4.9,5.8,67,0.00,,,0.00,WUHU216HW,2013-12-22 19:25:00,
2013-12-22 14:30:00,82.8,71.1,30.05,SE,135,2.5,5.8,68,0.00,,,0.00,WUHU216HW,2013-12-22 19:30:00,
2013-12-22 14:35:00,82.8,70.7,30.04,SSW,203,4.3,4.9,67,0.00,,,0.00,WUHU216HW,2013-12-22 19:35:00,
2013-12-22 14:40:00,83.0,70.4,30.04,SSE,158,6.9,8.5,66,0.00,,,0.00,WUHU216HW,2013-12-22 19:40:00,
2013-12-22 14:45:00,83.0,70.4,30.04,SE,135,1.3,8.5,66,0.00,,,0.00,WUHU216HW,2013-12-22 19:45:00,
2013-12-22 14:50:00,83.0,71.3,30.04,SSE,158,7.8,7.8,68,0.00,,,0.00,WUHU216HW,2013-12-22 19:50:00,
2013-12-22 14:55:00,83.2,71.5,30.04,SSE,158,4.7,7.8,68,0.00,,,0.00,WUHU216HW,2013-12-22 19:55:00,
2013-12-22 15:00:00,83.2,71.5,30.04,SSW,203,3.4,4.7,68,0.00,,,0.00,WUHU216HW,2013-12-22 20:00:00,
2013-12-22 15:05:00,83.2,71.0,30.04,SE,135,3.4,4.3,67,0.00,,,0.00,WUHU216HW,2013-12-22 20:05:00,
2013-12-22 15:10:00,83.0,71.3,30.04,SE,135,1.3,6.9,68,0.00,,,0.00,WUHU216HW,2013-12-22 20:10:00,
2013-12-22 15:15:00,82.8,70.7,30.04,NW,315,5.6,6.9,67,0.00,,,0.00,WUHU216HW,2013-12-22 20:15:00,
2013-12-22 15:20:00,82.4,69.8,30.04,SSE,158,2.5,8.1,66,0.00,,,0.00,WUHU216HW,2013-12-22 20:20:00,
2013-12-22 15:26:00,82.4,71.2,30.04,SSW,203,3.4,8.1,69,0.00,,,0.00,WUHU216HW,2013-12-22 20:26:00,
2013-12-22 15:31:00,82.4,69.8,30.04,SE,135,2.9,4.7,66,0.00,,,0.00,WUHU216HW,2013-12-22 20:31:00,
2013-12-22 15:36:00,82.6,71.4,30.05,SSE,158,1.1,3.8,69,0.00,,,0.00,WUHU216HW,2013-12-22 20:36:00,
2013-12-22 15:41:00,82.6,71.8,30.05,SSE,158,1.1,3.8,70,0.00,,,0.00,WUHU216HW,2013-12-22 20:41:00,
2013-12-22 15:46:00,82.8,72.0,30.05,SSW,203,4.9,4.9,70,0.00,,,0.00,WUHU216HW,2013-12-22 20:46:00,
2013-12-22 15:51:00,82.8,71.6,30.05,SE,135,1.6,4.9,69,0.00,,,0.00,WUHU216HW,2013-12-22 20:51:00,
2013-12-22 15:56:00,82.6,71.8,30.05,SSE,158,2.2,3.4,70,0.00,,,0.00,WUHU216HW,2013-12-22 20:56:00,
2013-12-22 16:01:00,82.6,71.8,30.05,SSE,158,1.1,3.4,70,0.00,,,0.00,WUHU216HW,2013-12-22 21:01:00,
2013-12-22 16:06:00,82.4,71.2,30.05,ESE,113,0.9,3.4,69,0.00,,,0.00,WUHU216HW,2013-12-22 21:06:00,
2013-12-22 16:11:00,82.1,70.8,30.05,SSE,158,1.8,4.3,69,0.00,,,0.00,WUHU216HW,2013-12-22 21:11:00,
2013-12-22 16:16:00,82.1,70.8,30.05,SSE,158,1.1,4.3,69,0.00,,,0.00,WUHU216HW,2013-12-22 21:16:00,
2013-12-22 16:22:00,81.9,70.8,30.05,SSE,158,2.5,2.9,69,0.00,,,0.00,WUHU216HW,2013-12-22 21:22:00,
2013-12-22 16:27:00,81.7,71.0,30.06,South,180,3.8,3.8,70,0.00,,,0.00,WUHU216HW,2013-12-22 21:27:00,
2013-12-22 16:28:00,81.5,70.8,30.06,SSW,203,1.6,3.8,70,0.00,,,0.00,WUHU216HW,2013-12-22 21:28:00,
2013-12-22 16:33:00,81.7,71.0,30.06,SSE,158,1.8,4.5,70,0.00,,,0.00,WUHU216HW,2013-12-22 21:33:00,
2013-12-22 16:38:00,81.5,70.8,30.06,SSE,158,1.8,4.5,70,0.00,,,0.00,WUHU216HW,2013-12-22 21:38:00,
2013-12-22 16:43:00,81.4,70.7,30.05,SE,135,0.9,4.5,70,0.00,,,0.00,WUHU216HW,2013-12-22 21:43:00,
2013-12-22 16:48:00,81.2,70.9,30.06,SSE,158,1.8,3.1,71,0.00,,,0.00,WUHU216HW,2013-12-22 21:48:00,
2013-12-22 16:53:00,81.0,70.7,30.06,SSE,158,1.6,1.8,71,0.00,,,0.00,WUHU216HW,2013-12-22 21:53:00,
2013-12-22 16:58:00,81.0,70.7,30.06,SSE,158,1.3,2.7,71,0.00,,,0.00,WUHU216HW,2013-12-22 21:58:00,
2013-12-22 17:03:00,80.6,70.4,30.06,SSE,158,2.9,2.9,71,0.00,,,0.00,WUHU216HW,2013-12-22 22:03:00,
2013-12-22 17:08:00,80.5,70.7,30.06,SE,135,2.5,6.3,72,0.00,,,0.00,WUHU216HW,2013-12-22 22:08:00,
2013-12-22 17:13:00,80.3,70.5,30.06,SSE,158,4.0,6.3,72,0.00,,,0.00,WUHU216HW,2013-12-22 22:13:00,
2013-12-22 17:18:00,80.1,70.3,30.06,SE,135,2.5,5.4,72,0.00,,,0.00,WUHU216HW,2013-12-22 22:18:00,
2013-12-22 17:24:00,79.9,70.5,30.07,SSE,158,0.9,2.9,73,0.00,,,0.00,WUHU216HW,2013-12-22 22:24:00,
2013-12-22 17:29:00,79.7,70.3,30.06,SSE,158,2.2,2.2,73,0.00,,,0.00,WUHU216HW,2013-12-22 22:29:00,
2013-12-22 17:34:00,79.6,70.1,30.07,SE,135,1.6,2.2,73,0.00,,,0.00,WUHU216HW,2013-12-22 22:34:00,
2013-12-22 17:39:00,79.4,70.4,30.07,SSE,158,0.4,2.0,74,0.00,,,0.00,WUHU216HW,2013-12-22 22:39:00,
2013-12-22 17:44:00,79.2,70.2,30.07,SSE,158,1.6,2.5,74,0.00,,,0.00,WUHU216HW,2013-12-22 22:44:00,
2013-12-22 17:49:00,79.2,70.2,30.07,SE,135,1.3,2.5,74,0.00,,,0.00,WUHU216HW,2013-12-22 22:49:00,
2013-12-22 17:54:00,78.8,70.2,30.07,SE,135,1.1,2.5,75,0.00,,,0.00,WUHU216HW,2013-12-22 22:54:00,
2013-12-22 17:59:00,78.7,70.0,30.07,SSE,158,1.6,2.5,75,0.00,,,0.00,WUHU216HW,2013-12-22 22:59:00,
2013-12-22 18:04:00,78.5,69.8,30.07,SE,135,1.6,2.2,75,0.00,,,0.00,WUHU216HW,2013-12-22 23:04:00,
2013-12-22 18:09:00,78.5,69.8,30.07,SSE,158,0.9,2.2,75,0.00,,,0.00,WUHU216HW,2013-12-22 23:09:00,
2013-12-22 18:14:00,78.3,69.7,30.07,SE,135,0.2,1.1,75,0.00,,,0.00,WUHU216HW,2013-12-22 23:14:00,
2013-12-22 18:19:00,78.1,69.5,30.07,SE,135,0.7,1.1,75,0.00,,,0.00,WUHU216HW,2013-12-22 23:19:00,
2013-12-22 18:24:00,78.1,69.5,30.08,SE,135,0.9,0.9,75,0.00,,,0.00,WUHU216HW,2013-12-22 23:24:00,
2013-12-22 18:29:00,78.1,69.5,30.08,SE,135,0.9,0.9,75,0.00,,,0.00,WUHU216HW,2013-12-22 23:29:00,
2013-12-22 18:35:00,77.9,69.3,30.08,SSE,158,0.9,0.9,75,0.00,,,0.00,WUHU216HW,2013-12-22 23:35:00,
2013-12-22 18:40:00,77.8,69.2,30.08,SSE,158,0.7,1.1,75,0.00,,,0.00,WUHU216HW,2013-12-22 23:40:00,
2013-12-22 18:45:00,77.8,69.2,30.08,SSE,158,0.0,1.1,75,0.00,,,0.00,WUHU216HW,2013-12-22 23:45:00,
2013-12-22 18:50:00,77.6,69.0,30.08,SE,135,0.0,1.1,75,0.00,,,0.00,WUHU216HW,2013-12-22 23:50:00,
2013-12-22 18:55:00,77.6,69.0,30.08,SSE,158,0.7,1.1,75,0.00,,,0.00,WUHU216HW,2013-12-22 23:55:00,
2013-12-22 19:00:00,77.4,69.2,30.08,SE,135,0.4,1.1,76,0.00,,,0.00,WUHU216HW,2013-12-23 00:00:00,
2013-12-22 19:05:00,77.4,69.2,30.08,SE,135,0.0,1.1,76,0.00,,,0.00,WUHU216HW,2013-12-23 00:05:00,
2013-12-22 19:10:00,77.2,69.0,30.09,SSE,158,0.2,0.9,76,0.00,,,0.00,WUHU216HW,2013-12-23 00:10:00,
2013-12-22 19:15:00,77.0,68.9,30.09,SSE,158,0.0,0.9,76,0.00,,,0.00,WUHU216HW,2013-12-23 00:15:00,
2013-12-22 19:20:00,77.0,68.9,30.09,SSE,158,0.2,0.4,76,0.00,,,0.00,WUHU216HW,2013-12-23 00:20:00,
2013-12-22 19:25:00,76.9,69.1,30.09,SE,135,0.4,0.4,77,0.00,,,0.00,WUHU216HW,2013-12-23 00:25:00,
2013-12-22 19:30:00,76.7,69.0,30.09,SSE,158,0.2,1.1,77,0.00,,,0.00,WUHU216HW,2013-12-23 00:30:00,
2013-12-22 19:36:00,76.5,68.8,30.09,SSE,158,0.4,1.1,77,0.00,,,0.00,WUHU216HW,2013-12-23 00:36:00,
2013-12-22 19:41:00,76.5,68.8,30.09,SSE,158,0.0,1.1,77,0.00,,,0.00,WUHU216HW,2013-12-23 00:41:00,
2013-12-22 19:46:00,76.3,68.6,30.09,SE,135,0.2,0.4,77,0.00,,,0.00,WUHU216HW,2013-12-23 00:46:00,
2013-12-22 19:51:00,76.3,68.6,30.09,SE,135,0.4,0.4,77,0.00,,,0.00,WUHU216HW,2013-12-23 00:51:00,
2013-12-22 19:56:00,76.1,68.4,30.09,NE,45,0.4,0.7,77,0.00,,,0.00,WUHU216HW,2013-12-23 00:56:00,
2013-12-22 20:01:00,76.0,68.7,30.09,SE,135,0.9,0.9,78,0.00,,,0.00,WUHU216HW,2013-12-23 01:01:00,
2013-12-22 20:07:00,76.0,68.7,30.09,ESE,113,0.7,0.9,78,0.00,,,0.00,WUHU216HW,2013-12-23 01:07:00,
2013-12-22 20:12:00,75.6,68.3,30.10,SE,135,0.0,1.8,78,0.00,,,0.00,WUHU216HW,2013-12-23 01:12:00,
2013-12-22 20:19:00,75.6,68.3,30.10,ESE,113,0.4,1.8,78,0.00,,,0.00,WUHU216HW,2013-12-23 01:19:00,
2013-12-22 20:24:00,75.4,68.1,30.10,ESE,113,0.0,0.4,78,0.00,,,0.00,WUHU216HW,2013-12-23 01:24:00,
2013-12-22 20:29:00,75.2,68.0,30.11,ESE,113,0.4,0.4,78,0.00,,,0.00,WUHU216HW,2013-12-23 01:29:00,
2013-12-22 20:34:00,75.1,67.8,30.10,ESE,113,0.2,1.6,78,0.00,,,0.00,WUHU216HW,2013-12-23 01:34:00,
2013-12-22 20:39:00,74.9,67.6,30.11,ESE,113,1.1,1.6,78,0.00,,,0.00,WUHU216HW,2013-12-23 01:39:00,
2013-12-22 20:44:00,74.9,67.6,30.10,East,90,0.0,1.1,78,0.00,,,0.00,WUHU216HW,2013-12-23 01:44:00,
2013-12-22 20:49:00,74.9,67.6,30.11,ESE,113,0.0,1.1,78,0.00,,,0.00,WUHU216HW,2013-12-23 01:49:00,
2013-12-22 20:54:00,74.7,67.4,30.11,ESE,113,0.4,1.1,78,0.00,,,0.00,WUHU216HW,2013-12-23 01:54:00,
2013-12-22 20:59:00,74.5,67.2,30.11,ESE,113,1.8,1.8,78,0.00,,,0.00,WUHU216HW,2013-12-23 01:59:00,
2013-12-22 21:05:00,74.5,67.7,30.11,ESE,113,0.4,1.8,79,0.00,,,0.00,WUHU216HW,2013-12-23 02:05:00,
2013-12-22 21:10:00,74.5,67.7,30.11,ESE,113,1.1,2.0,79,0.00,,,0.00,WUHU216HW,2013-12-23 02:10:00,
2013-12-22 21:15:00,74.5,67.7,30.11,ESE,113,1.3,2.0,79,0.00,,,0.00,WUHU216HW,2013-12-23 02:15:00,
2013-12-22 21:20:00,74.3,67.5,30.11,ESE,113,1.1,2.5,79,0.00,,,0.00,WUHU216HW,2013-12-23 02:20:00,
2013-12-22 21:25:00,74.3,67.5,30.11,ESE,113,0.2,2.5,79,0.00,,,0.00,WUHU216HW,2013-12-23 02:25:00,
2013-12-22 21:30:00,74.2,67.3,30.11,ESE,113,1.1,1.8,79,0.00,,,0.00,WUHU216HW,2013-12-23 02:30:00,
2013-12-22 21:36:00,74.2,67.3,30.11,ESE,113,0.0,1.8,79,0.00,,,0.00,WUHU216HW,2013-12-23 02:36:00,
2013-12-22 21:41:00,74.2,67.3,30.11,SE,135,0.9,1.1,79,0.00,,,0.00,WUHU216HW,2013-12-23 02:41:00,
2013-12-22 21:46:00,74.2,67.3,30.11,ESE,113,2.0,2.0,79,0.00,,,0.00,WUHU216HW,2013-12-23 02:46:00,
2013-12-22 21:51:00,74.2,67.3,30.11,ESE,113,0.4,2.0,79,0.00,,,0.00,WUHU216HW,2013-12-23 02:51:00,
2013-12-22 21:56:00,74.2,67.3,30.11,ESE,113,0.4,1.1,79,0.00,,,0.00,WUHU216HW,2013-12-23 02:56:00,
2013-12-22 22:01:00,74.0,67.2,30.11,ESE,113,1.6,1.6,79,0.00,,,0.00,WUHU216HW,2013-12-23 03:01:00,
2013-12-22 22:06:00,74.0,67.2,30.11,ESE,113,1.1,1.6,79,0.00,,,0.00,WUHU216HW,2013-12-23 03:06:00,
2013-12-22 22:11:00,73.8,67.0,30.12,SE,135,0.2,1.1,79,0.00,,,0.00,WUHU216HW,2013-12-23 03:11:00,
2013-12-22 22:16:00,73.8,67.0,30.12,ESE,113,0.2,1.1,79,0.00,,,0.00,WUHU216HW,2013-12-23 03:16:00,
2013-12-22 22:21:00,73.8,67.0,30.12,ESE,113,0.0,1.1,79,0.00,,,0.00,WUHU216HW,2013-12-23 03:21:00,
2013-12-22 22:26:00,73.8,67.0,30.12,ESE,113,0.0,0.4,79,0.00,,,0.00,WUHU216HW,2013-12-23 03:26:00,
2013-12-22 22:31:00,73.6,66.8,30.12,ESE,113,0.0,0.4,79,0.00,,,0.00,WUHU216HW,2013-12-23 03:31:00,
2013-12-22 22:36:00,73.6,66.8,30.12,ESE,113,0.4,0.4,79,0.00,,,0.00,WUHU216HW,2013-12-23 03:36:00,
2013-12-22 22:42:00,73.4,66.6,30.12,ESE,113,0.2,0.4,79,0.00,,,0.00,WUHU216HW,2013-12-23 03:42:00,
2013-12-22 22:47:00,73.4,66.6,30.12,ESE,113,0.4,0.4,79,0.00,,,0.00,WUHU216HW,2013-12-23 03:47:00,
2013-12-22 22:52:00,73.3,66.4,30.12,ESE,113,0.0,0.4,79,0.00,,,0.00,WUHU216HW,2013-12-23 03:52:00,
2013-12-22 22:57:00,73.3,66.4,30.12,ESE,113,0.2,0.4,79,0.00,,,0.00,WUHU216HW,2013-12-23 03:57:00,
2013-12-22 23:02:00,73.1,66.3,30.12,ESE,113,0.0,0.4,79,0.00,,,0.00,WUHU216HW,2013-12-23 04:02:00,
2013-12-22 23:07:00,73.1,66.3,30.12,ESE,113,0.0,0.4,79,0.00,,,0.00,WUHU216HW,2013-12-23 04:07:00,
2013-12-22 23:12:00,73.1,66.3,30.12,ESE,113,0.0,0.4,79,0.00,,,0.00,WUHU216HW,2013-12-23 04:12:00,
2013-12-22 23:17:00,72.9,66.1,30.12,ESE,113,0.0,0.0,79,0.00,,,0.00,WUHU216HW,2013-12-23 04:17:00,
2013-12-22 23:22:00,72.9,66.1,30.12,ESE,113,0.4,0.4,79,0.00,,,0.00,WUHU216HW,2013-12-23 04:22:00,
2013-12-22 23:27:00,72.9,66.1,30.12,ESE,113,0.0,0.4,79,0.00,,,0.00,WUHU216HW,2013-12-23 04:27:00,
2013-12-22 23:32:00,72.7,65.9,30.12,ESE,113,0.4,0.4,79,0.00,,,0.00,WUHU216HW,2013-12-23 04:32:00,
2013-12-22 23:37:00,72.7,65.9,30.12,ESE,113,0.4,0.7,79,0.00,,,0.00,WUHU216HW,2013-12-23 04:37:00,
2013-12-22 23:42:00,72.7,66.2,30.12,ESE,113,0.0,0.7,80,0.00,,,0.00,WUHU216HW,2013-12-23 04:42:00,
2013-12-22 23:47:00,72.5,66.1,30.12,ESE,113,0.0,0.4,80,0.00,,,0.00,WUHU216HW,2013-12-23 04:47:00,
2013-12-22 23:53:00,72.5,66.1,30.12,ESE,113,0.0,0.4,80,0.00,,,0.00,WUHU216HW,2013-12-23 04:53:00,
2013-12-22 23:58:00,72.5,66.1,30.12,ESE,113,0.0,0.4,80,0.00,,,0.00,WUHU216HW,2013-12-23 04:58:00,